Regional Weather Roundup
Issued by NWS

Home | Current Version | Previous Version | Graphics & Text | Print | Product List | Glossary On
Versions: 1 2 3 4 5 6 7 8 9 10 11 12 13 14 15 16 17 18 19 20 21 22 23 24 25 26 27 28 29 30 31 32 33 34 35 36 37 38 39 40 41 42 43 44 45 46 47 48 49 50
000
ASUS45 KBOU 302007
RWRCO

WEATHER ROUNDUP FOR COLORADO
NATIONAL WEATHER SERVICE DENVER/BOULDER CO
200 PM MDT SAT APR 30 2016

NOTE: "FAIR" INDICATES FEW OR NO CLOUDS BELOW 12000 FEET WITH NO
SIGNIFICANT WEATHER AND/OR OBSTRUCTIONS TO VISIBILITY.

COZ001>005-013-030-031-302100-
...NORTHWEST COLORADO...

CITY           SKY/WX    TMP DP  RH WIND       PRES   REMARKS
CRAIG          CLOUDY    44  30  57 E5        29.95R
HAYDEN         CLOUDY    39  30  70 SE14      29.95R
MEEKER         CLOUDY    42  32  67 CALM      29.94R
MOUNT WERNER   NOT AVBL
STEAMBOAT SPGS CLOUDY    40  24  53 E14G20    29.95R
WALDEN         CLOUDY    32  23  69 N9        30.01R WCI  24
$$

COZ006>008-011-302100-
...WEST CENTRAL VALLEYS...

CITY           SKY/WX    TMP DP  RH WIND       PRES   REMARKS
GRAND JUNCTION CLOUDY    52  31  44 N6        29.89S
MONTROSE       PTSUNNY   52  29  41 NW12G20   29.88F
EAGLE          CLOUDY    39  36  87 CALM      29.95R
RIFLE          PTSUNNY   50  31  48 S5        29.90S
DELTA          NOT AVBL
NUCLA          NOT AVBL
$$

COZ017>023-064>068-302100-
...SOUTHWEST COLORADO...

CITY           SKY/WX    TMP DP  RH WIND       PRES   REMARKS
DURANGO        FAIR      53  24  32 VRB5      29.83F
CORTEZ         CLOUDY    53  31  42 W8        29.85S
PAGOSA SPRINGS FAIR      49  26  42 CALM      29.88F
TELLURIDE      PTSUNNY   41  24  49 SW9       29.93F
WOLF CREEK PAS LGT SNOW  27  23  86 SW15      29.98S WCI  15
$$

COZ009-010-012-014-032>034-037-058>063-302100-
...CENTRAL COLORADO...

CITY           SKY/WX    TMP DP  RH WIND       PRES   REMARKS
ASPEN          CLOUDY    40  30  67 NW7       29.90R
BUENA VISTA    CLOUDY    38  29  70 S7        29.89R
COPPER MTN     NOT AVBL
BERTHOUD PASS  SNOW      14   5  67 SE8G16    29.95R VSB 1/4 WCI   3
COTTONWOOD PAS CLOUDY    37  30  75 CALM      29.91R
GUNNISON       PTSUNNY   43  30  61 NW3       29.90S
KREMMLING      CLOUDY    41  27  56 NW12G17   29.96S
LEADVILLE      CLOUDY    32  22  66 N10       29.90R WCI  24
MONARCH PASS   CLOUDY    23  21  93 MISG      30.04R
SALIDA         PTSUNNY   45  34  65 SE13G20   29.94S
SUNLIGHT       CLOUDY   N/A N/A N/A CALM      30.00R
WILKERSON PASS SNOW      21  19  93 E8        29.96R VSB 1/4 WCI  12
$$

COZ069>075-302100-
...SAN LUIS VALLEY/SANGRE DE CRISTO MOUNTAINS...

CITY           SKY/WX    TMP DP  RH WIND       PRES   REMARKS
ALAMOSA        PTSUNNY   50  28  42 E8        29.84F
LA VETA PASS   HAZE      32  27  80 NE5       29.92S VSB<1/4 WCI  27
SAGUACHE       FAIR      45  32  61 SW3       29.86F
$$

COZ035-036-038>040-302100-
...NORTHERN COLORADO FRONT RANGE...

CITY           SKY/WX    TMP DP  RH WIND       PRES   REMARKS
DENVER INTL AP LGT SNOW  34  32  92 N22       30.00R VSB 3/4 WCI  22
DMNS CITY PARK   N/A     37  33  87 N13G25    30.01S
AURORA         LGT SNOW  32  32 100 N23G29    30.01R FOG     WCI  19
FRONT RANGE AP LGT SNOW  34  32  93 NW17G25   30.00R VSB 1   WCI  23
ERIE MUNI ARPT LGT RAIN  38  35  89 N21G26    30.03R
BOULDER MUN AP CLOUDY    39  34  81 N15G22    30.02S
CENTENNIAL     LGT SNOW  33  31  92 N17       30.00R VSB 1   WCI  22
BROOMFIELD     LGT RAIN  37  36  93 N18G24    30.01R
FORT COLLINS   CLOUDY    36  34  93 NW18G24   30.04R
LONGMONT       CLOUDY    42  33  71 N17G24    30.05R HAZE
$$

COZ041-046-047-076>085-087-088-302100-
...PIKES PEAK/PALMER DIVIDE AND SOUTHERN FOOTHILLS...

CITY           SKY/WX    TMP DP  RH WIND       PRES   REMARKS
COLO. SPRINGS  CLOUDY    36  25  64 NW28G38   29.95R
A. F. ACADEMY  PTSUNNY   32  25  74 N23G35    29.95R WCI  19
SCHRIEVER AFB  NOT AVBL
ELLICOTT       NOT AVBL
FALCON         CLOUDY    38  26  62 N17G25    29.94S
FORT CARSON    CLOUDY    39  28  63 N29G39    29.93R
LIMON          LGT SNOW  34  30  85 NW24      29.94R FOG     WCI  21
MONUMENT HILL  LGT SNOW  30  27  86 N20G25    29.98R VSB 1   WCI  18
TRINIDAD       CLOUDY    40  30  67 NE10      29.94S
$$

COZ042>045-048>051-090-091-302100-
...NORTHEAST COLORADO...

CITY           SKY/WX    TMP DP  RH WIND       PRES   REMARKS
GREELEY ARPT   CLOUDY    37  34  87 N20       30.03R
AKRON          LGT SNOW  33  31  92 N26       29.92R VSB 3/4 WCI  20
BURLINGTON     CLOUDY    36  31  82 NW20G25   29.89R
WRAY           NOT AVBL
STERLING       MIX PCPN  34  34 100 N15       29.94R WCI  24
HOLYOKE        NOT AVBL
FORT MORGAN    LGT RAIN  34  32  93 NW20      29.98R WCI  23
$$

COZ086-089-092>099-302100-
...SOUTHEAST COLORADO...

CITY           SKY/WX    TMP DP  RH WIND       PRES   REMARKS
PUEBLO         CLOUDY    47  29  49 N23G29    29.94R
LA JUNTA       CLOUDY    47  31  53 N23       29.95R
LAMAR          CLOUDY    47  32  56 N20       29.90R
SPRINGFIELD      N/A     48  31  51 NW23G36   29.90S
$$



USA.gov is the U.S. government's official web portal to all federal, state and local government web resources and services.